Regional Weather Roundup
Issued by NWS

Home | Current Version | Previous Version | Graphics & Text | Print | Product List | Glossary On
Versions: 1 2 3 4 5 6 7 8 9 10 11 12 13 14 15 16 17 18 19 20 21 22 23 24 25 26 27 28 29 30 31 32 33 34 35 36 37 38 39 40 41 42 43 44 45 46 47 48 49 50
000
ASUS45 KABQ 231410
RWRNM
NEW MEXICO REGIONAL WEATHER ROUNDUP
NATIONAL WEATHER SERVICE ALBUQUERQUE NM
800 AM MDT MON OCT 23 2017

NOTE: "FAIR" MEANS FEW OR NO CLOUDS BELOW 12,000 FEET AGL WITH NO
       SIGNIFICANT WEATHER OR OBSTRUCTIONS TO VISION.

      THIS PRODUCT IS RELEASED AS TWO VERSIONS.  ONE VERSION NEAR
      THE TOP OF THE HOUR CONTAINING PRELIMINARY DATA FROM ALBUQUERQUE
      AND OTHER STATIONS.  A FINAL VERSION WITH ADDITIONAL DATA IS
      ISSUED ABOUT 10 MINUTES AFTER THE HOUR.

NMZ501-503-504-510>518-231500-
NORTHWEST PLATEAU/NORTHCENTRAL MOUNTAINS

CITY           SKY/WX    TMP DP  RH WIND       PRES   REMARKS
FARMINGTON     FAIR      37  22  54 E8        30.41R WCI  31
LOS ALAMOS     FAIR      44  20  39 NW3       30.44R
SANTA FE       FAIR      42  24  49 N10       30.39R
TAOS           FAIR      29  20  69 N5        30.47R WCI  24
ANGEL FIRE     FAIR      22  20  91 SE3       30.49S

$$
NMZ402-403-502-505>509-231500-
WESTCENTRAL MOUNTAINS/SOUTHWEST MOUNTAINS

CITY           SKY/WX    TMP DP  RH WIND       PRES   REMARKS
GALLUP         FAIR      29  17  61 NE5       30.48R WCI  24
GRANTS         FAIR      32  22  67 NW13      30.47S WCI  22
SILVER CITY    FAIR      45  20  36 NW9       30.36R

$$
NMZ407-409-411-412-231500-
SOUTHERN DESERTS

CITY           SKY/WX    TMP DP  RH WIND       PRES   REMARKS
DEMING         FAIR      44  25  47 NW5       30.32R
LAS CRUCES     FAIR      56  24  28 NW10      30.31S
HOLLOMAN AFB   FAIR      43  32  65 N12       30.30R
ALAMOGORDO     FAIR      54  25  32 N13       30.29R
T OR C         FAIR      51  23  33 N5        30.33R

$$
NMZ519>523-231500-
CENTRAL VALLEYS/CENTRAL HIGHLANDS

CITY           SKY/WX    TMP DP  RH WIND       PRES   REMARKS
ALBUQUERQUE    FAIR      53  23  31 N9        30.38R
DOUBLE EAGLE   PTCLDY    52  25  35 N8        30.39S
MORIARTY ARPT  FAIR      55  22  27 NW17      30.36R
CLINES CORNERS FAIR      46  20  35 NW24G33   30.34S
BELEN          FAIR      49  24  38 N7        30.38R
SOCORRO        FAIR      46  24  40 NW7       30.35S

$$
NMZ524>526-539-540-231500-
SOUTHCENTRAL MOUNTAINS

CITY           SKY/WX    TMP DP  RH WIND       PRES   REMARKS
RUIDOSO        FAIR      54  16  22 NW18G24   30.39R

$$
NMZ527>531-231500-
NORTHEAST HIGHLANDS/NORTHEAST PLAINS

CITY           SKY/WX    TMP DP  RH WIND       PRES   REMARKS
LAS VEGAS      FAIR      56  23  27 NW18      30.30R
RATON          FAIR      40  28  62 NE12      30.31R WCI  33
CLAYTON        FAIR      59  27  29 N14       30.24R

$$
NMZ532>537-231500-
EASTCENTRAL PLAINS

CITY           SKY/WX    TMP DP  RH WIND       PRES   REMARKS
SANTA ROSA     FAIR      56  26  31 NW5       30.22R
TUCUMCARI      FAIR      54  33  45 W8        30.18R
CANNON AFB     FAIR      55  33  43 NW10      30.18R
CLOVIS AIRPORT   N/A     53  35  50 NW9       30.17R

$$
NMZ028-029-538-231500-
SOUTHEAST PLAINS

CITY           SKY/WX    TMP DP  RH WIND       PRES   REMARKS
ROSWELL        FAIR      47  39  74 NW3       30.20R
ARTESIA        FAIR      48  39  71 N8        30.20R
CARLSBAD       FAIR      49  44  83 N6        30.16R
HOBBS          SUNNY     57  34  41 W12       30.16R


$$




USA.gov is the U.S. government's official web portal to all federal, state and local government web resources and services.